GW2929 Weather Reports


Display with metric or nautical units.
time (UTC)temp
F
wind
direction
speed
MPH
gust
MPH
rain 1hr
in
rain 24hr
in
rain mn
in
humidity
%
barometer
mb
20260502164013 67 250 2.0 3.0 0.00 0.00 0.00 76 1016.3
20260502163509 67 285 3.0 7.0 0.00 0.00 0.00 76 1016.3
20260502163006 66 199 1.0 1.0 0.00 0.00 0.00 77 1016.5
20260502162503 66 257 6.0 10.0 0.00 0.00 0.00 77 1016.4
20260502162000 66 213 1.0 1.0 0.00 0.00 0.00 78 1016.3
20260502161456 66 238 2.0 2.0 0.00 0.00 0.00 79 1016.3
20260502160955 67 306 3.0 6.0 0.00 0.00 0.00 78 1016.4
20260502160452 65 300 4.0 6.0 0.00 0.00 0.00 80 1016.3
20260502151941 62 282 4.0 6.0 0.00 0.00 0.00 85 1016.1
20260502151438 61 285 4.0 6.0 0.00 0.00 0.00 86 1016.0
20260502150935 61 283 4.0 6.0 0.00 0.00 0.00 86 1015.9
20260502150432 61 297 4.0 8.0 0.00 0.00 0.00 87 1016.0
20260502130318 59 317 4.0 7.0 0.00 0.00 0.00 93 1013.6
20260502123803 58 297 4.0 7.0 0.00 0.00 0.00 93 1013.3
20260502123300 58 289 4.0 6.0 0.00 0.00 0.00 93 1013.1
20260502122757 58 298 3.0 8.0 0.00 0.00 0.00 93 1012.7
20260502122253 58 291 4.0 7.0 0.00 0.00 0.00 94 1013.0
20260502121751 58 320 2.0 3.0 0.00 0.00 0.00 94 1012.9
20260502121249 58 321 4.0 11.0 0.00 0.00 0.00 94 1012.9
20260502120745 58 322 6.0 8.0 0.00 0.00 0.00 94 1012.9
20260502120242 58 323 8.0 10.0 0.00 0.00 0.00 94 1012.9
20260502115740 58 323 4.0 7.0 0.00 0.00 0.00 94 1012.7
20260502115237 58 323 5.0 8.0 0.00 0.00 0.00 95 1012.6
20260502114732 58 323 4.0 7.0 0.00 0.00 0.00 95 1012.5
20260502114230 58 322 2.0 3.0 0.00 0.00 0.00 94 1012.4
20260502113727 58 322 3.0 4.0 0.00 0.00 0.00 94 1012.4
20260502113225 58 322 1.0 2.0 0.00 0.00 0.00 94 1012.2
20260502112723 58 321 6.0 7.0 0.00 0.00 0.00 94 1012.2
20260502112220 58 321 2.0 3.0 0.00 0.00 0.00 94 1012.2
20260502111717 58 320 4.0 6.0 0.00 0.00 0.00 94 1012.2
20260502111214 58 320 4.0 6.0 0.00 0.00 0.00 94 1012.4
20260502110712 58 320 2.0 3.0 0.00 0.00 0.00 95 1012.3
20260502110209 58 320 7.0 9.0 0.00 0.00 0.00 95 1012.3
20260502105707 58 320 5.0 7.0 0.00 0.00 0.00 95 1012.4
20260502105203 58 320 5.0 6.0 0.00 0.00 0.00 95 1012.5
20260502104701 58 320 4.0 7.0 0.00 0.00 0.00 95 1012.3
20260502104158 58 320 4.0 6.0 0.00 0.00 0.00 95 1012.5
20260502103656 58 322 5.0 9.0 0.00 0.00 0.00 95 1012.5
20260502103153 58 320 3.0 11.0 0.00 0.00 0.00 95 1012.3
20260502102650 58 319 3.0 6.0 0.00 0.00 0.00 95 1012.3
20260502102147 58 276 2.0 3.0 0.00 0.00 0.00 95 1012.3
20260502101645 58 303 3.0 3.0 0.00 0.00 0.00 94 1012.3
20260502101143 58 250 1.0 2.0 0.00 0.00 0.00 94 1012.3
20260502100641 58 289 1.0 3.0 0.00 0.00 0.00 94 1012.1
20260502100139 58 235 0.0 0.0 0.00 0.00 0.00 94 1012.1
20260502091113 59 292 2.0 3.0 0.00 0.00 0.00 95 1011.7
20260502090610 59 247 1.0 1.0 0.00 0.00 0.00 95 1011.6
20260502090107 59 260 9.0 15.0 0.00 0.00 0.00 95 1011.5
20260502071504 61 277 3.0 4.0 0.00 0.00 0.00 93 1011.0
20260502071003 61 296 6.0 7.0 0.00 0.00 0.00 93 1011.1
20260502070500 62 243 1.0 1.0 0.00 0.00 0.00 93 1011.2
20260502065958 62 100 1.0 2.0 0.00 0.00 0.00 93 1011.0
20260502065457 62 275 3.0 4.0 0.00 0.00 0.00 92 1010.9
20260502064954 62 317 7.0 10.0 0.00 0.00 0.00 92 1011.3
20260502064452 62 283 2.0 4.0 0.00 0.00 0.00 92 1011.2
20260502063949 62 327 3.0 4.0 0.00 0.00 0.00 92 1011.0
20260502063447 62 294 3.0 4.0 0.00 0.00 0.00 92 1011.2
20260502062944 62 307 4.0 4.0 0.00 0.00 0.00 91 1011.1
20260502062441 62 309 6.0 9.0 0.00 0.00 0.00 91 1011.2
20260502061940 62 193 2.0 3.0 0.00 0.00 0.00 91 1011.3
20260502061437 62 186 1.0 2.0 0.00 0.00 0.00 92 1011.3
20260502060933 61 267 2.0 3.0 0.00 0.00 0.00 92 1010.8
20260502060428 62 324 6.0 10.0 0.00 0.00 0.00 92 1011.0
20260502055925 61 330 5.0 6.0 0.00 0.00 0.00 92 1011.2
20260502055423 62 277 9.0 11.0 0.00 0.00 0.00 92 1011.1
20260502054923 62 268 2.0 4.0 0.00 0.00 0.00 92 1011.1
20260502054420 62 291 5.0 8.0 0.00 0.00 0.00 93 1011.0
20260502053917 62 314 7.0 10.0 0.00 0.00 0.00 93 1010.7
20260502053415 62 322 4.0 8.0 0.00 0.00 0.00 93 1010.6
20260502052912 62 325 5.0 6.0 0.00 0.00 0.00 93 1010.5
20260502052411 62 319 6.0 11.0 0.00 0.00 0.00 93 1010.3
20260502051908 62 307 4.0 4.0 0.00 0.00 0.00 93 1010.4
20260502051406 62 334 2.0 6.0 0.00 0.00 0.00 93 1010.0
20260502050903 62 252 3.0 6.0 0.00 0.00 0.00 93 1010.3
20260502050359 62 325 4.0 6.0 0.00 0.00 0.00 93 1010.2
20260502045856 62 251 4.0 9.0 0.00 0.00 0.00 93 1010.1
20260502045353 62 296 5.0 6.0 0.00 0.00 0.00 93 1010.0
20260502044850 62 283 9.0 15.0 0.00 0.00 0.00 93 1010.0
20260502044345 62 247 2.0 3.0 0.00 0.00 0.00 93 1009.9
20260502043843 63 254 7.0 10.0 0.00 0.00 0.00 93 1009.9
20260502043341 63 265 6.0 8.0 0.00 0.00 0.00 93 1009.9
20260502042840 63 295 2.0 4.0 0.00 0.00 0.00 93 1009.6
20260502042338 63 283 4.0 8.0 0.00 0.00 0.00 93 1009.6
20260502041835 63 293 5.0 7.0 0.00 0.00 0.00 93 1009.7
20260502041332 63 292 3.0 6.0 0.00 0.00 0.00 93 1009.4
20260502040829 63 214 3.0 6.0 0.00 0.00 0.00 93 1009.6
20260502040326 63 306 5.0 6.0 0.00 0.00 0.00 93 1009.3
20260502035822 63 283 2.0 4.0 0.00 0.00 0.00 93 1009.0
20260502035319 63 266 2.0 2.0 0.00 0.00 0.00 93 1009.1
20260502034816 63 298 4.0 6.0 0.00 0.00 0.00 93 1009.3
20260502034315 63 280 5.0 9.0 0.00 0.00 0.00 93 1009.0
20260502033813 63 247 3.0 4.0 0.00 0.00 0.00 93 1009.0
20260502033310 63 292 9.0 21.0 0.00 0.00 0.00 93 1009.1
20260502032807 64 37 4.0 7.0 0.00 0.00 0.00 93 1008.8
20260502032305 64 271 5.0 8.0 0.00 0.00 0.00 93 1008.8
20260502031800 64 291 4.0 6.0 0.00 0.00 0.00 93 1008.6
20260502031258 64 281 4.0 8.0 0.00 0.00 0.00 93 1008.4
20260502030757 64 259 3.0 4.0 0.00 0.00 0.00 93 1008.1
20260502030254 64 284 4.0 6.0 0.00 0.00 0.00 93 1008.2
20260502025752 64 298 3.0 7.0 0.00 0.00 0.00 94 1008.1
20260502025249 64 277 7.0 10.0 0.00 0.00 0.00 94 1007.7
20260502024747 64 258 3.0 4.0 0.00 0.00 0.00 94 1007.4
20260502024244 64 298 4.0 9.0 0.00 0.00 0.00 94 1007.2
20260502023743 64 205 2.0 4.0 0.00 0.00 0.00 94 1007.0
20260502023240 64 321 1.0 2.0 0.00 0.00 0.00 94 1006.9
20260502022737 64 259 4.0 4.0 0.00 0.00 0.00 93 1006.9
20260502022233 64 253 2.0 3.0 0.00 0.00 0.00 93 1006.8
20260502021731 64 270 3.0 6.0 0.00 0.00 0.00 93 1006.7
20260502021228 64 313 5.0 9.0 0.00 0.00 0.00 93 1006.5
20260502020725 64 292 5.0 10.0 0.00 0.00 0.00 93 1006.5
20260502020222 64 267 2.0 3.0 0.00 0.00 0.00 93 1006.3
20260502015720 64 311 4.0 9.0 0.00 0.00 0.00 93 1006.2
20260502015216 64 317 1.0 2.0 0.00 0.00 0.00 93 1006.0
20260502014714 65 37 6.0 11.0 0.00 0.00 0.00 93 1006.0
20260502014211 65 251 3.0 3.0 0.00 0.00 0.00 93 1006.0
20260502013707 65 256 4.0 7.0 0.00 0.00 0.00 93 1006.2
20260502013202 65 259 2.0 3.0 0.00 0.00 0.00 93 1005.8
20260502012659 65 270 7.0 9.0 0.00 0.00 0.00 93 1006.0
20260502012158 65 210 3.0 4.0 0.00 0.00 0.00 93 1005.6
20260502011654 65 19 2.0 6.0 0.00 0.00 0.00 93 1005.7
20260502011149 65 291 4.0 7.0 0.00 0.00 0.00 93 1005.4
20260502010648 65 261 4.0 6.0 0.00 0.00 0.00 94 1005.4
20260502010143 65 302 3.0 4.0 0.00 0.00 0.00 94 1005.2
20260502005641 66 316 2.0 4.0 0.00 0.00 0.00 94 1005.3
20260502005139 66 224 2.0 3.0 0.00 0.00 0.00 94 1005.6
20260502004634 66 247 6.0 8.0 0.00 0.00 0.00 94 1005.5
20260502004131 66 287 6.0 9.0 0.00 0.00 0.00 93 1005.4
20260502003629 66 263 6.0 10.0 0.00 0.00 0.00 94 1005.4
20260502003126 66 27 4.0 7.0 0.00 0.00 0.00 94 1005.4
20260502002622 66 359 6.0 11.0 0.00 0.00 0.00 94 1005.3
20260502002120 66 243 3.0 6.0 0.00 0.00 0.00 95 1005.1
20260502001617 66 285 3.0 3.0 0.00 0.00 0.00 95 1005.1
20260502001114 66 270 4.0 4.0 0.00 0.00 0.00 95 1004.9
20260502000613 66 308 4.0 7.0 0.00 0.00 0.00 96 1004.7
20260502000110 66 247 2.0 3.0 0.00 0.00 0.00 96 1004.9
20260501235605 66 212 1.0 1.0 0.00 0.00 0.00 97 1004.7
20260501235102 66 293 7.0 11.0 0.00 0.00 0.00 98 1004.7
20260501234557 66 234 6.0 15.0 0.00 0.00 0.00 98 1004.7
20260501234055 66 291 4.0 6.0 0.00 0.00 0.00 99 1004.5
20260501233553 66 288 8.0 14.0 0.00 0.00 0.00 99 1004.5
20260501233050 66 303 6.0 9.0 0.00 0.00 0.00 99 1004.4
20260501232546 65 286 3.0 3.0 0.00 0.00 0.00 99 1004.3
20260501232043 66 279 4.0 7.0 0.00 0.00 0.00 99 1004.4
20260501231541 66 319 4.0 7.0 0.00 0.00 0.00 99 1003.9
20260501231039 66 281 3.0 4.0 0.00 0.00 0.00 99 1003.9
20260501230538 66 321 3.0 4.0 0.00 0.00 0.00 99 1004.0
20260501230035 66 220 1.0 2.0 0.00 0.00 0.00 99 1003.9
20260501225532 67 268 5.0 8.0 0.00 0.00 0.00 98 1003.7
20260501225028 67 324 2.0 3.0 0.00 0.00 0.00 98 1003.7
20260501224526 68 248 3.0 4.0 0.00 0.00 0.00 98 1003.8
20260501224023 68 298 4.0 8.0 0.00 0.00 0.00 98 1003.1
20260501223519 68 229 3.0 6.0 0.00 0.00 0.00 98 1001.9
20260501223015 68 304 6.0 10.0 0.00 0.00 0.00 98 1001.6
20260501222512 67 202 1.0 3.0 0.00 0.00 0.00 98 1001.8
20260501222009 67 237 1.0 3.0 0.00 0.00 0.00 99 1001.9
20260501221505 67 304 2.0 4.0 0.00 0.00 0.00 99 1002.2
20260501221003 67 284 5.0 6.0 0.00 0.00 0.00 99 1002.0
20260501220501 67 274 6.0 10.0 0.00 0.00 0.00 99 1002.2
20260501215957 67 335 4.0 7.0 0.00 0.00 0.00 99 1002.3
20260501215453 67 287 2.0 2.0 0.00 0.00 0.00 99 1002.1
20260501214949 67 238 5.0 7.0 0.00 0.00 0.00 98 1002.0
20260501214444 67 242 2.0 3.0 0.00 0.00 0.00 98 1002.1
20260501213940 67 267 2.0 3.0 0.00 0.00 0.00 98 1002.3
20260501213438 68 314 5.0 7.0 0.00 0.00 0.00 97 1002.4
20260501212932 68 319 6.0 8.0 0.00 0.00 0.00 97 1002.2
20260501212430 68 284 4.0 6.0 0.00 0.00 0.00 97 1002.3
20260501211926 69 315 3.0 4.0 0.00 0.00 0.00 97 1002.2
20260501211424 68 37 1.0 3.0 0.00 0.00 0.00 97 1002.0
20260501210921 68 224 4.0 7.0 0.00 0.00 0.00 97 1001.8
20260501210418 68 284 1.0 3.0 0.00 0.00 0.00 97 1001.9
20260501205915 68 273 2.0 3.0 0.00 0.00 0.00 97 1002.0
20260501205412 68 228 1.0 1.0 0.00 0.00 0.00 97 1001.8
20260501204909 68 259 2.0 2.0 0.00 0.00 0.00 98 1002.0
20260501204404 68 274 1.0 2.0 0.00 0.00 0.00 98 1001.8
20260501203900 68 275 4.0 6.0 0.00 0.00 0.00 98 1001.9
20260501203358 68 216 2.0 3.0 0.00 0.00 0.00 98 1002.0
20260501202855 68 285 1.0 2.0 0.00 0.00 0.00 98 1002.1
20260501202352 68 328 5.0 7.0 0.00 0.00 0.00 98 1002.1
20260501201849 69 223 1.0 2.0 0.00 0.00 0.00 98 1002.0
20260501201346 69 249 6.0 8.0 0.00 0.00 0.00 98 1002.0
20260501200842 69 2 4.0 6.0 0.00 0.00 0.00 97 1002.2
20260501200339 70 252 1.0 1.0 0.00 0.00 0.00 97 1002.3
20260501195837 71 286 2.0 6.0 0.00 0.00 0.00 97 1002.5
20260501195332 71 242 3.0 4.0 0.00 0.00 0.00 97 1002.1
20260501194829 71 246 2.0 3.0 0.00 0.00 0.00 97 1002.1
20260501194325 71 325 2.0 2.0 0.00 0.00 0.00 97 1002.1
20260501193821 71 216 0.0 1.0 0.00 0.00 0.00 98 1001.9
20260501193320 71 315 3.0 4.0 0.00 0.00 0.00 98 1002.2
20260501192817 71 307 6.0 7.0 0.00 0.00 0.00 98 1002.5
20260501192314 71 204 0.0 0.0 0.00 0.00 0.00 97 1002.7
20260501191811 71 325 4.0 6.0 0.00 0.00 0.00 97 1002.5
20260501191309 72 128 1.0 1.0 0.00 0.00 0.00 96 1002.2
20260501190805 73 182 0.0 1.0 0.00 0.00 0.00 95 1001.9
20260501190301 73 323 1.0 2.0 0.00 0.00 0.00 94 1001.6
20260501185756 74 278 2.0 3.0 0.00 0.00 0.00 93 1001.5
20260501185252 74 254 2.0 2.0 0.00 0.00 0.00 93 1001.7
20260501184749 74 74 4.0 7.0 0.00 0.00 0.00 94 1001.6
20260501184244 74 267 2.0 3.0 0.00 0.00 0.00 95 1001.7
20260501183740 73 274 0.0 1.0 0.00 0.00 0.00 96 1001.9
20260501183238 73 285 1.0 1.0 0.00 0.00 0.00 96 1001.8
20260501182734 73 233 2.0 3.0 0.00 0.00 0.00 97 1002.0
20260501182231 73 264 2.0 3.0 0.00 0.00 0.00 97 1002.1
20260501181728 73 52 3.0 6.0 0.00 0.00 0.00 97 1002.4
20260501181225 73 212 1.0 1.0 0.00 0.00 0.00 97 1002.0
20260501180723 73 269 2.0 3.0 0.00 0.00 0.00 96 1002.2
20260501180218 73 10 2.0 6.0 0.00 0.00 0.00 95 1002.3
20260501175715 73 270 1.0 3.0 0.00 0.00 0.00 95 1002.3
20260501175212 74 64 1.0 2.0 0.00 0.00 0.00 95 1002.3
20260501174709 73 182 1.0 1.0 0.00 0.00 0.00 95 1002.1
20260501174206 74 191 0.0 1.0 0.00 0.00 0.00 95 1002.3
20260501173704 74 224 2.0 2.0 0.00 0.00 0.00 96 1002.3
20260501173201 74 355 2.0 3.0 0.00 0.00 0.00 96 1002.5
20260501172657 74 180 2.0 2.0 0.00 0.00 0.00 96 1002.5
20260501172152 74 43 2.0 2.0 0.00 0.00 0.00 96 1002.9
20260501171648 74 162 1.0 1.0 0.00 0.00 0.00 96 1003.0
20260501171145 74 258 0.0 1.0 0.00 0.00 0.00 97 1003.2